Time,TemperatureF,DewpointF,PressureIn,WindDirection,WindDirectionDegrees,WindSpeedMPH,WindSpeedGustMPH,Humidity,HourlyPrecipIn,Conditions,Clouds,dailyrainin,SoftwareType,DateUTC
2013-06-17 00:10:00,52.9,49.0,30.13,North,355,0.0,2.0,85,0.00,,,0.00,weatherlink.com 1.10,2013-06-17 07:10:00,
2013-06-17 00:25:00,52.6,49.0,30.13,North,355,1.0,1.0,86,0.00,,,0.00,weatherlink.com 1.10,2013-06-17 07:25:00,
2013-06-17 00:40:00,52.4,49.0,30.13,North,355,0.0,2.0,87,0.00,,,0.00,weatherlink.com 1.10,2013-06-17 07:40:00,
2013-06-17 00:55:00,51.8,48.0,30.13,NE,53,0.0,3.0,87,0.00,,,0.00,weatherlink.com 1.10,2013-06-17 07:55:00,
2013-06-17 01:10:00,51.5,48.0,30.13,NE,47,1.0,2.0,88,0.00,,,0.00,weatherlink.com 1.10,2013-06-17 08:10:00,
2013-06-17 01:25:00,51.1,48.0,30.13,NE,47,1.0,2.0,88,0.00,,,0.00,weatherlink.com 1.10,2013-06-17 08:25:00,
2013-06-17 01:40:00,50.8,48.0,30.13,NE,47,0.0,2.0,89,0.00,,,0.00,weatherlink.com 1.10,2013-06-17 08:40:00,
2013-06-17 01:55:00,50.5,48.0,30.13,NE,47,1.0,2.0,90,0.00,,,0.00,weatherlink.com 1.10,2013-06-17 08:55:00,
2013-06-17 02:10:00,50.3,48.0,30.12,NE,47,2.0,2.0,91,0.00,,,0.00,weatherlink.com 1.10,2013-06-17 09:10:00,
2013-06-17 02:25:00,50.2,48.0,30.12,NE,47,1.0,2.0,91,0.00,,,0.00,weatherlink.com 1.10,2013-06-17 09:25:00,
2013-06-17 02:40:00,50.1,48.0,30.12,NE,47,1.0,2.0,91,0.00,,,0.00,weatherlink.com 1.10,2013-06-17 09:40:00,
2013-06-17 02:55:00,50.2,48.0,30.12,NE,47,1.0,2.0,92,0.00,,,0.00,weatherlink.com 1.10,2013-06-17 09:55:00,
2013-06-17 03:10:00,50.2,48.0,30.12,NE,47,1.0,2.0,92,0.00,,,0.00,weatherlink.com 1.10,2013-06-17 10:10:00,
2013-06-17 03:25:00,50.1,48.0,30.12,NE,47,0.0,2.0,93,0.00,,,0.00,weatherlink.com 1.10,2013-06-17 10:25:00,
2013-06-17 03:40:00,49.9,48.0,30.11,NE,47,1.0,1.0,93,0.00,,,0.00,weatherlink.com 1.10,2013-06-17 10:40:00,
2013-06-17 03:55:00,49.6,48.0,30.11,NE,47,0.0,2.0,93,0.00,,,0.00,weatherlink.com 1.10,2013-06-17 10:55:00,
2013-06-17 04:11:00,49.7,48.0,30.11,NNW,336,0.0,2.0,93,0.00,,,0.00,weatherlink.com 1.10,2013-06-17 11:11:00,
2013-06-17 04:26:00,49.9,48.0,30.11,NW,320,0.0,2.0,94,0.00,,,0.00,weatherlink.com 1.10,2013-06-17 11:26:00,
2013-06-17 04:41:00,49.9,48.0,30.11,North,9,0.0,1.0,94,0.00,,,0.00,weatherlink.com 1.10,2013-06-17 11:41:00,
2013-06-17 04:56:00,49.8,48.0,30.11,North,350,0.0,2.0,94,0.00,,,0.00,weatherlink.com 1.10,2013-06-17 11:56:00,
2013-06-17 05:11:00,49.7,48.0,30.11,WNW,286,0.0,2.0,95,0.00,,,0.00,weatherlink.com 1.10,2013-06-17 12:11:00,
2013-06-17 05:26:00,49.7,48.0,30.11,WSW,243,1.0,2.0,95,0.00,,,0.00,weatherlink.com 1.10,2013-06-17 12:26:00,
2013-06-17 05:41:00,49.6,48.0,30.11,WSW,244,0.0,1.0,95,0.00,,,0.00,weatherlink.com 1.10,2013-06-17 12:41:00,
2013-06-17 05:56:00,49.6,48.0,30.11,WSW,246,1.0,2.0,95,0.00,,,0.00,weatherlink.com 1.10,2013-06-17 12:56:00,
2013-06-17 06:11:00,49.6,48.0,30.11,WSW,246,1.0,2.0,95,0.00,,,0.00,weatherlink.com 1.10,2013-06-17 13:11:00,
2013-06-17 06:26:00,49.7,48.0,30.11,South,182,0.0,2.0,95,0.00,,,0.00,weatherlink.com 1.10,2013-06-17 13:26:00,
2013-06-17 06:41:00,49.7,48.0,30.11,NNW,342,0.0,2.0,95,0.00,,,0.00,weatherlink.com 1.10,2013-06-17 13:41:00,
2013-06-17 06:56:00,49.8,49.0,30.11,NNE,13,1.0,3.0,95,0.00,,,0.00,weatherlink.com 1.10,2013-06-17 13:56:00,
2013-06-17 07:11:00,50.0,48.0,30.12,NW,318,1.0,3.0,94,0.00,,,0.00,weatherlink.com 1.10,2013-06-17 14:11:00,
2013-06-17 07:26:00,50.0,49.0,30.12,SSW,200,1.0,3.0,95,0.00,,,0.00,weatherlink.com 1.10,2013-06-17 14:26:00,
2013-06-17 07:41:00,50.3,49.0,30.12,SSW,204,1.0,3.0,94,0.00,,,0.00,weatherlink.com 1.10,2013-06-17 14:41:00,
2013-06-17 07:56:00,50.7,49.0,30.12,SE,134,1.0,1.0,94,0.00,,,0.00,weatherlink.com 1.10,2013-06-17 14:56:00,
2013-06-17 08:11:00,51.9,50.0,30.12,East,87,1.0,2.0,92,0.00,,,0.00,weatherlink.com 1.10,2013-06-17 15:11:00,
2013-06-17 08:26:00,54.3,51.0,30.12,SSW,195,0.0,3.0,87,0.00,,,0.00,weatherlink.com 1.10,2013-06-17 15:26:00,
2013-06-17 08:41:00,55.5,51.0,30.12,West,263,1.0,4.0,84,0.00,,,0.00,weatherlink.com 1.10,2013-06-17 15:41:00,
2013-06-17 08:56:00,56.9,52.0,30.12,West,263,1.0,3.0,82,0.00,,,0.00,weatherlink.com 1.10,2013-06-17 15:56:00,
2013-06-17 09:11:00,58.1,52.0,30.12,WSW,252,1.0,3.0,79,0.00,,,0.00,weatherlink.com 1.10,2013-06-17 16:11:00,
2013-06-17 09:26:00,60.0,52.0,30.12,NW,312,2.0,4.0,76,0.00,,,0.00,weatherlink.com 1.10,2013-06-17 16:26:00,
2013-06-17 09:41:00,61.6,52.0,30.11,WNW,293,0.0,4.0,71,0.00,,,0.00,weatherlink.com 1.10,2013-06-17 16:41:00,
2013-06-17 09:56:00,62.8,53.0,30.11,WNW,288,3.0,4.0,70,0.00,,,0.00,weatherlink.com 1.10,2013-06-17 16:56:00,
2013-06-17 10:11:00,64.9,53.0,30.11,SW,232,2.0,5.0,66,0.00,,,0.00,weatherlink.com 1.10,2013-06-17 17:11:00,
2013-06-17 10:26:00,66.0,53.0,30.11,SSW,198,3.0,6.0,64,0.00,,,0.00,weatherlink.com 1.10,2013-06-17 17:26:00,
2013-06-17 10:41:00,67.5,54.0,30.11,SW,225,1.0,4.0,62,0.00,,,0.00,weatherlink.com 1.10,2013-06-17 17:41:00,
2013-06-17 11:12:00,69.4,54.0,30.11,WNW,303,7.0,7.0,59,0.00,,,0.00,weatherlink.com 1.10,2013-06-17 18:12:00,
2013-06-17 11:27:00,69.5,55.0,30.11,West,277,3.0,8.0,60,0.00,,,0.00,weatherlink.com 1.10,2013-06-17 18:27:00,
2013-06-17 11:42:00,70.4,55.0,30.11,NNW,344,2.0,8.0,59,0.00,,,0.00,weatherlink.com 1.10,2013-06-17 18:42:00,
2013-06-17 11:57:00,69.5,56.0,30.11,WSW,249,4.0,9.0,63,0.00,,,0.00,weatherlink.com 1.10,2013-06-17 18:57:00,
2013-06-17 12:12:00,71.3,57.0,30.11,WNW,285,2.0,7.0,60,0.00,,,0.00,weatherlink.com 1.10,2013-06-17 19:12:00,
2013-06-17 12:27:00,71.3,57.0,30.11,SW,222,3.0,10.0,60,0.00,,,0.00,weatherlink.com 1.10,2013-06-17 19:27:00,
2013-06-17 12:42:00,71.6,56.0,30.11,NW,311,3.0,10.0,58,0.00,,,0.00,weatherlink.com 1.10,2013-06-17 19:42:00,
2013-06-17 12:57:00,71.5,56.0,30.11,WNW,299,2.0,10.0,59,0.00,,,0.00,weatherlink.com 1.10,2013-06-17 19:57:00,
2013-06-17 13:12:00,70.0,55.0,30.11,West,265,4.0,11.0,60,0.00,,,0.00,weatherlink.com 1.10,2013-06-17 20:12:00,
2013-06-17 13:27:00,72.5,57.0,30.10,West,260,7.0,11.0,59,0.00,,,0.00,weatherlink.com 1.10,2013-06-17 20:27:00,
2013-06-17 13:42:00,72.7,55.0,30.10,SW,232,2.0,9.0,54,0.00,,,0.00,weatherlink.com 1.10,2013-06-17 20:42:00,
2013-06-17 13:57:00,71.2,54.0,30.10,SW,229,4.0,9.0,55,0.00,,,0.00,weatherlink.com 1.10,2013-06-17 20:57:00,
2013-06-17 14:12:00,72.0,55.0,30.09,WNW,293,7.0,8.0,55,0.00,,,0.00,weatherlink.com 1.10,2013-06-17 21:12:00,
2013-06-17 14:27:00,71.4,55.0,30.09,SW,215,4.0,9.0,57,0.00,,,0.00,weatherlink.com 1.10,2013-06-17 21:27:00,
2013-06-17 14:42:00,72.2,54.0,30.09,WNW,298,3.0,11.0,53,0.00,,,0.00,weatherlink.com 1.10,2013-06-17 21:42:00,
2013-06-17 14:57:00,71.3,54.0,30.10,SW,214,4.0,11.0,54,0.00,,,0.00,weatherlink.com 1.10,2013-06-17 21:57:00,
2013-06-17 15:12:00,70.5,54.0,30.10,SSW,208,5.0,9.0,56,0.00,,,0.00,weatherlink.com 1.10,2013-06-17 22:12:00,
2013-06-17 15:27:00,70.1,54.0,30.09,WSW,246,4.0,8.0,58,0.00,,,0.00,weatherlink.com 1.10,2013-06-17 22:27:00,
2013-06-17 15:42:00,70.0,55.0,30.09,SW,236,3.0,12.0,59,0.00,,,0.00,weatherlink.com 1.10,2013-06-17 22:42:00,
2013-06-17 15:57:00,69.3,56.0,30.09,West,263,4.0,10.0,62,0.00,,,0.00,weatherlink.com 1.10,2013-06-17 22:57:00,
2013-06-17 16:12:00,70.5,56.0,30.09,WSW,252,1.0,13.0,60,0.00,,,0.00,weatherlink.com 1.10,2013-06-17 23:12:00,
2013-06-17 16:27:00,69.5,55.0,30.09,NW,311,4.0,8.0,61,0.00,,,0.00,weatherlink.com 1.10,2013-06-17 23:27:00,
2013-06-17 16:42:00,68.1,55.0,30.09,WNW,282,2.0,12.0,64,0.00,,,0.00,weatherlink.com 1.10,2013-06-17 23:42:00,
2013-06-17 16:57:00,67.5,55.0,30.09,WSW,238,2.0,12.0,65,0.00,,,0.00,weatherlink.com 1.10,2013-06-17 23:57:00,
2013-06-17 17:12:00,67.0,55.0,30.09,WNW,292,3.0,10.0,66,0.00,,,0.00,weatherlink.com 1.10,2013-06-18 00:12:00,
2013-06-17 17:27:00,64.9,55.0,30.09,WNW,286,2.0,10.0,70,0.00,,,0.00,weatherlink.com 1.10,2013-06-18 00:27:00,
2013-06-17 17:42:00,64.5,55.0,30.08,NW,321,4.0,8.0,72,0.00,,,0.00,weatherlink.com 1.10,2013-06-18 00:42:00,
2013-06-17 17:57:00,64.1,55.0,30.08,West,265,5.0,9.0,73,0.00,,,0.00,weatherlink.com 1.10,2013-06-18 00:57:00,
2013-06-17 18:12:00,62.4,55.0,30.07,NNW,331,1.0,7.0,77,0.00,,,0.00,weatherlink.com 1.10,2013-06-18 01:12:00,
2013-06-17 18:27:00,62.6,55.0,30.07,NW,318,2.0,8.0,76,0.00,,,0.00,weatherlink.com 1.10,2013-06-18 01:27:00,
2013-06-17 18:42:00,62.3,55.0,30.07,WNW,287,2.0,8.0,76,0.00,,,0.00,weatherlink.com 1.10,2013-06-18 01:42:00,
2013-06-17 18:57:00,61.8,54.0,30.07,WNW,297,1.0,4.0,75,0.00,,,0.00,weatherlink.com 1.10,2013-06-18 01:57:00,
2013-06-17 19:12:00,62.0,54.0,30.07,WNW,292,2.0,3.0,76,0.00,,,0.00,weatherlink.com 1.10,2013-06-18 02:12:00,
2013-06-17 19:27:00,61.8,54.0,30.07,NW,324,2.0,3.0,76,0.00,,,0.00,weatherlink.com 1.10,2013-06-18 02:27:00,
2013-06-17 19:42:00,61.3,54.0,30.07,WNW,290,1.0,3.0,77,0.00,,,0.00,weatherlink.com 1.10,2013-06-18 02:42:00,
2013-06-17 19:57:00,61.0,54.0,30.07,WNW,295,2.0,2.0,78,0.00,,,0.00,weatherlink.com 1.10,2013-06-18 02:57:00,
2013-06-17 20:12:00,60.6,54.0,30.07,NNW,334,0.0,3.0,78,0.00,,,0.00,weatherlink.com 1.10,2013-06-18 03:12:00,
2013-06-17 20:27:00,59.9,54.0,30.06,WNW,293,2.0,3.0,80,0.00,,,0.00,weatherlink.com 1.10,2013-06-18 03:27:00,
2013-06-17 20:42:00,59.6,54.0,30.06,WNW,293,1.0,3.0,81,0.00,,,0.00,weatherlink.com 1.10,2013-06-18 03:42:00,
2013-06-17 20:57:00,59.2,54.0,30.06,WNW,286,2.0,4.0,82,0.00,,,0.00,weatherlink.com 1.10,2013-06-18 03:57:00,
2013-06-17 21:12:00,58.9,54.0,30.06,West,279,0.0,2.0,83,0.00,,,0.00,weatherlink.com 1.10,2013-06-18 04:12:00,
2013-06-17 21:27:00,58.8,54.0,30.07,WNW,286,2.0,2.0,83,0.00,,,0.00,weatherlink.com 1.10,2013-06-18 04:27:00,
2013-06-17 21:42:00,58.3,54.0,30.07,West,277,0.0,3.0,84,0.00,,,0.00,weatherlink.com 1.10,2013-06-18 04:42:00,
2013-06-17 21:57:00,58.1,54.0,30.07,NW,309,0.0,2.0,85,0.00,,,0.00,weatherlink.com 1.10,2013-06-18 04:57:00,
2013-06-17 22:12:00,57.9,54.0,30.08,WNW,290,1.0,3.0,86,0.00,,,0.00,weatherlink.com 1.10,2013-06-18 05:12:00,
2013-06-17 22:27:00,57.7,54.0,30.08,WNW,293,2.0,3.0,86,0.00,,,0.00,weatherlink.com 1.10,2013-06-18 05:27:00,
2013-06-17 22:42:00,57.6,54.0,30.07,WNW,284,1.0,2.0,86,0.00,,,0.00,weatherlink.com 1.10,2013-06-18 05:42:00,
2013-06-17 22:57:00,57.6,54.0,30.07,West,281,0.0,1.0,86,0.00,,,0.00,weatherlink.com 1.10,2013-06-18 05:57:00,
2013-06-17 23:12:00,57.3,53.0,30.07,NNE,14,1.0,3.0,86,0.00,,,0.00,weatherlink.com 1.10,2013-06-18 06:12:00,
2013-06-17 23:27:00,56.9,53.0,30.06,NW,309,0.0,2.0,86,0.00,,,0.00,weatherlink.com 1.10,2013-06-18 06:27:00,
2013-06-17 23:42:00,56.5,52.0,30.06,West,266,1.0,2.0,86,0.00,,,0.00,weatherlink.com 1.10,2013-06-18 06:42:00,
2013-06-17 23:57:00,56.1,52.0,30.06,WNW,286,2.0,3.0,87,0.00,,,0.00,weatherlink.com 1.10,2013-06-18 06:57:00,